Home   Weather   Austin   Past weeks

Flag for USA Past Weather in Austin, Texas, USA — Yesterday and Last 2 Weeks

Now
68 °F

Overcast.


Feels Like: 68 °F
Forecast: 65 / 83 °F
Wind: 7 mph from Southwest

Location: Camp Mabry / Austin City

Current Time: Mar 24, 2017 at 7:06:44 am

Latest Report: Mar 24, 2017 at 5:51 am


Visibility: 10 mi

Pressure: 29.90 "Hg

Humidity: 82%

Dew Point: 62 °F

Location of AustinLocation

Past Weather in Austin — Graph

°F

Austin Temperature Yesterday

Maximum temperature yesterday: 84 °F (at 2:51 pm)
Minimum temperature yesterday: 66 °F (at 5:51 am)
Average temperature yesterday: 72 °F

High & Low Weather Summary for the Past Weeks

 TemperatureHumidityPressure
High84 °F (Mar 19, 4:51 pm)100% (Mar 11, 8:51 pm)30.34 "Hg (Mar 11, 8:51 pm)
Low43 °F (Mar 14, 6:51 am)24% (Mar 23, 4:51 pm)29.84 "Hg (Mar 24, 4:51 am)
Average67 °F77%30.13 "Hg
* Reported Mar 9 4:12 am — Mar 24 5:51 am, Austin, Weather by CustomWeather, © 2017

Note: Actual official high and low records may vary slightly from our data, if they occured in-between our weather recording intervals... More about our weather records

Advertising

Austin Weather History for the Previous 24 Hours

Scroll right to see more
 ConditionsComfort  
Time TempWeatherWind HumidityBarometerVisibility
5:51 am
Fri, Mar 24
68 °FOvercast.7 mph82%29.90 "Hg10 mi
4:51 am68 °FMostly cloudy.12 mph82%29.84 "Hg10 mi
4:20 am68 °FMostly cloudy.8 mph82%29.88 "Hg10 mi
3:51 am67 °FOvercast.9 mph85%29.85 "Hg10 mi
3:13 am67 °FOvercast.13 mph85%29.90 "Hg10 mi
2:51 am68 °FOvercast.12 mph82%29.87 "Hg10 mi
1:51 am68 °FMostly cloudy.12 mph82%29.89 "Hg10 mi
12:51 am68 °FMostly cloudy.9 mph82%29.93 "Hg10 mi
11:51 pm
Thu, Mar 23
69 °FMostly cloudy.10 mph79%29.93 "Hg10 mi
11:31 pm69 °FOvercast.12 mph79%29.96 "Hg10 mi
10:51 pm69 °FMild.10 mph76%29.92 "Hg10 mi
10:20 pm70 °FPassing clouds.16 mph71%29.96 "Hg10 mi
9:51 pm70 °FClear.13 mph66%29.94 "Hg10 mi
8:51 pm73 °FClear.8 mph50%29.93 "Hg10 mi
7:51 pm75 °FClear.10 mph39%29.93 "Hg10 mi
6:51 pm78 °FSunny.13 mph31%29.91 "Hg10 mi
5:51 pm81 °FSunny.15 mph33%29.91 "Hg10 mi
4:51 pm83 °FPleasantly warm.10 mph24%29.92 "Hg10 mi
3:51 pm84 °FSunny.16 mph31%29.94 "Hg10 mi
2:51 pm84 °FPleasantly warm.16 mph35%29.98 "Hg10 mi
1:51 pm82 °FSunny.12 mph41%30.01 "Hg10 mi
12:51 pm80 °FSunny.14 mph47%30.04 "Hg10 mi
11:51 am78 °FSunny.10 mph56%30.07 "Hg10 mi
10:51 am72 °FPassing clouds.9 mph68%30.08 "Hg10 mi
9:51 am69 °FBroken clouds.15 mph79%30.08 "Hg10 mi
8:51 am67 °FOvercast.9 mph85%30.06 "Hg10 mi
8:17 am66 °FPartly sunny.7 mph87%30.08 "Hg10 mi
7:51 am66 °FBroken clouds.8 mph87%30.06 "Hg10 mi
Weather by CustomWeather, © 2017

See weather overviewHow to use our weather pages